Flag for Norway Weather past 2 weeks in Lierbyen, Norway

Now
46 °F

Light rain. Partly cloudy.


Feels Like: 36 °F
Forecast: 22 / 40 °F
Wind: 39 mph from Southwest

Location: Oslo / Fornebu

Current Time: Jan 27, 2015 at 10:36:33 PM

Latest Report: Jan 27, 2015 at 9:50 PM


Visibility: 5 mi

Pressure: 29.42 "Hg

Humidity: 93%

Dew point: 45 °F

Location of LierbyenLocation

Historic Weather in Lierbyen — Graph

°F

Lierbyen temperature yesterday

Maximum temperature yesterday: 46 °F (at 12:50 AM)
Minimum temperature yesterday: 39 °F (at 11:20 AM)
Average temperature yesterday: 42 °F

Past Weeks' High & Low Weather Summary

 TemperatureHumidityPressure
High48 °F (Jan 25, 6:20 PM)100% (Jan 23, 5:50 PM)30.15 "Hg (Jan 23, 5:50 PM)
Low36 °F (Jan 13, 3:50 AM)49% (Jan 21, 10:20 PM)28.38 "Hg (Jan 15, 9:50 PM)
Average42 °F75%29.46 "Hg
* Reported Jan 12 9:20 PM — Jan 27 9:20 PM, Lierbyen, Weather by CustomWeather, © 2014

Note: Actual official high and low records may vary slightly from our data, if they occured in-between our weather recording intervals... More about our weather records

Advertising

Lierbyen weather history for previous 24 hours

 ConditionsComfort  
Time TempWeatherWind HumidityBarometerVisibility
9:20 PM
Jan 27
46 °FLight rain. Passing clouds.40 mph93%29.45 "Hg4 mi
8:50 PM46 °FLight rain. Passing clouds.39 mph93%29.47 "Hg4 mi
8:20 PM46 °FLight rain. Fog.44 mph93%29.47 "Hg2 mi
7:50 PM46 °FLight rain. Fog.41 mph100%29.50 "Hg2 mi
7:20 PM46 °FLight rain. Fog.38 mph100%29.53 "Hg2 mi
6:50 PM46 °FLight rain. Fog.38 mph100%29.53 "Hg1 mi
6:20 PM46 °FLight rain. Fog.35 mph100%29.56 "Hg2 mi
5:50 PM46 °FSprinkles. Passing clouds.35 mph100%29.56 "Hg4 mi
5:20 PM46 °FSprinkles. Passing clouds.36 mph100%29.59 "Hg4 mi
4:50 PM46 °FSprinkles. Passing clouds.32 mph93%29.62 "HgN/A
4:20 PM46 °FPassing clouds.36 mph93%29.62 "HgN/A
3:50 PM46 °FPartly sunny.37 mph93%29.65 "HgN/A
3:20 PM46 °FPartly sunny.38 mph93%29.65 "HgN/A
2:50 PM46 °FPartly sunny.36 mph93%29.65 "HgN/A
2:20 PM46 °FPartly sunny.33 mph93%29.68 "HgN/A
1:50 PM46 °FSprinkles. Partly sunny.29 mph93%29.68 "HgN/A
1:20 PM46 °FSprinkles. Partly sunny.37 mph93%29.68 "HgN/A
12:50 PM46 °FSprinkles. Partly sunny.32 mph100%29.68 "Hg4 mi
12:20 PM46 °FSprinkles. Partly sunny.30 mph93%29.68 "Hg6 mi
11:50 AM46 °FPartly sunny.31 mph100%29.71 "HgN/A
11:20 AM46 °FLight rain. Partly sunny.35 mph93%29.71 "HgN/A
10:50 AM45 °FLight rain. Partly sunny.39 mph100%29.71 "HgN/A
10:20 AM45 °FSprinkles. Mostly cloudy.36 mph93%29.71 "HgN/A
9:50 AM45 °FLight rain. Low clouds.37 mph93%29.74 "HgN/A
9:20 AM45 °FPartly sunny.33 mph93%29.74 "HgN/A
8:50 AM45 °FPartly sunny.32 mph87%29.74 "HgN/A
8:20 AM43 °FPassing clouds.32 mph93%29.77 "HgN/A
7:50 AM45 °FPartly cloudy.29 mph81%29.77 "HgN/A
7:20 AM43 °FLight rain. Mostly cloudy.29 mph93%29.77 "HgN/A
6:50 AM43 °FSprinkles. Passing clouds.29 mph81%29.80 "HgN/A
6:20 AM43 °FSprinkles. Passing clouds.25 mph81%29.80 "HgN/A
5:50 AM43 °FSprinkles. Passing clouds.28 mph76%29.80 "HgN/A
4:50 AM45 °FPassing clouds.29 mph71%29.83 "HgN/A
4:20 AM45 °FPartly cloudy.29 mph66%29.83 "HgN/A
3:50 AM45 °FPassing clouds.32 mph66%29.83 "HgN/A
3:20 AM45 °FPassing clouds.26 mph66%29.83 "HgN/A
2:50 AM45 °FPassing clouds.30 mph66%29.83 "HgN/A
2:20 AM45 °FPartly cloudy.24 mph71%29.83 "HgN/A
1:50 AM43 °FPassing clouds.22 mph76%29.83 "HgN/A
1:20 AM43 °FPartly cloudy.28 mph76%29.83 "HgN/A
12:50 AM43 °FPassing clouds.25 mph76%29.83 "HgN/A
12:20 AM43 °FPartly cloudy.28 mph76%29.83 "HgN/A
11:50 PM
Jan 26
45 °FPassing clouds.25 mph57%29.83 "HgN/A
11:20 PM43 °FPassing clouds.25 mph66%29.83 "HgN/A
10:50 PM43 °FPassing clouds.20 mph66%29.83 "HgN/A
10:20 PM43 °FPassing clouds.22 mph66%29.83 "HgN/A
Weather by CustomWeather, © 2014

See weather overviewHow to use our weather pages